FW3855 Weather Reports


time (UTC)temp
F
wind
direction
speed
knots
gust
knots
rain 1hr
in
rain 24hr
in
rain mn
in
humidity
%
barometer
mb
20260506235111 75 315 4.3 12.2 0.00 0.00 0.00 11 1016.1
20260506234616 75 29 4.3 12.2 0.00 0.00 0.00 10 1016.0
20260506233612 76 261 2.6 7.8 0.00 0.00 0.00 11 1016.2
20260506233110 75 280 3.5 10.4 0.00 0.00 0.00 11 1016.1
20260506232610 75 146 4.3 10.4 0.00 0.00 0.00 12 1016.2
20260506232110 75 340 3.5 11.3 0.00 0.00 0.00 12 1016.2
20260506231610 74 22 4.3 11.3 0.00 0.00 0.00 12 1016.4
20260506231112 74 308 3.5 8.7 0.00 0.00 0.00 12 1016.5
20260506230606 74 355 4.3 8.7 0.00 0.00 0.00 12 1016.5
20260506230106 74 352 5.2 13.0 0.00 0.00 0.00 13 1016.5
20260506225606 74 35 5.2 13.0 0.00 0.00 0.00 13 1016.6
20260506225109 74 345 4.3 9.6 0.00 0.00 0.00 13 1016.6
20260506224611 74 311 4.3 8.7 0.00 0.00 0.00 13 1016.7
20260506224110 74 252 2.6 9.6 0.00 0.00 0.00 13 1016.6
20260506223609 74 323 3.5 11.3 0.00 0.00 0.00 13 1016.7
20260506222610 74 308 3.5 9.6 0.00 0.00 0.00 13 1016.8
20260506222108 74 37 2.6 9.6 0.00 0.00 0.00 13 1016.8
20260506221606 73 89 3.5 8.7 0.00 0.00 0.00 13 1016.8
20260506221108 74 32 3.5 9.6 0.00 0.00 0.00 14 1016.9
20260506220607 73 295 4.3 9.6 0.00 0.00 0.00 14 1017.0
20260506220107 73 314 4.3 13.9 0.00 0.00 0.00 15 1017.2
20260506215606 73 265 5.2 13.9 0.00 0.00 0.00 14 1017.3
20260506215110 73 291 5.2 13.0 0.00 0.00 0.00 15 1017.3
20260506214603 73 27 5.2 11.3 0.00 0.00 0.00 14 1017.4
20260506214102 73 300 5.2 12.2 0.00 0.00 0.00 15 1017.4
20260506213600 73 311 4.3 12.2 0.00 0.00 0.00 15 1017.4
20260506212601 73 30 4.3 10.4 0.00 0.00 0.00 14 1017.5
20260506212100 73 313 5.2 10.4 0.00 0.00 0.00 14 1017.5
20260506211559 73 316 3.5 10.4 0.00 0.00 0.00 14 1017.6
20260506211100 72 304 4.3 11.3 0.00 0.00 0.00 16 1017.5
20260506210600 72 215 4.3 11.3 0.00 0.00 0.00 15 1017.5
20260506210101 72 242 3.5 8.7 0.00 0.00 0.00 15 1017.5
20260506205559 71 292 3.5 7.8 0.00 0.00 0.00 15 1017.6
20260506205059 71 252 2.6 7.8 0.00 0.00 0.00 16 1017.6
20260506204050 72 354 2.6 7.8 0.00 0.00 0.00 15 1017.7
20260506203545 71 39 3.5 8.7 0.00 0.00 0.00 16 1017.7
20260506203044 72 295 3.5 8.7 0.00 0.00 0.00 15 1017.8
20260506202041 71 74 4.3 8.7 0.00 0.00 0.00 16 1017.7
20260506201539 71 317 3.5 10.4 0.00 0.00 0.00 17 1017.7
20260506201039 71 14 2.6 10.4 0.00 0.00 0.00 16 1017.8
20260506200545 71 36 2.6 11.3 0.00 0.00 0.00 16 1018.0
20260506195535 70 301 3.5 9.6 0.00 0.00 0.00 17 1018.1
20260506195036 70 302 3.5 12.2 0.00 0.00 0.00 17 1018.1
20260506194034 69 324 4.3 12.2 0.00 0.00 0.00 18 1018.1
20260506193534 69 252 3.5 8.7 0.00 0.00 0.00 18 1018.2
20260506193034 70 217 2.6 8.7 0.00 0.00 0.00 17 1018.2
20260506192033 69 309 3.5 11.3 0.00 0.00 0.00 19 1018.2
20260506191035 69 326 3.5 7.8 0.00 0.00 0.00 18 1018.3
20260506190531 69 333 2.6 7.0 0.00 0.00 0.00 18 1018.3
20260506185530 68 286 4.3 10.4 0.00 0.00 0.00 19 1018.4
20260506185031 68 333 3.5 8.7 0.00 0.00 0.00 18 1018.3
20260506184528 68 26 3.5 8.7 0.00 0.00 0.00 19 1018.4
20260506184029 67 307 4.3 10.4 0.00 0.00 0.00 19 1018.5
20260506183025 68 317 2.6 7.8 0.00 0.00 0.00 19 1018.4
20260506182024 67 310 3.5 8.7 0.00 0.00 0.00 20 1018.5
20260506181524 67 268 1.7 8.7 0.00 0.00 0.00 19 1018.5
20260506181022 67 193 2.6 8.7 0.00 0.00 0.00 20 1018.5
20260506180521 66 143 3.5 8.7 0.00 0.00 0.00 20 1018.6
20260506180021 66 311 3.5 7.8 0.00 0.00 0.00 20 1018.5
20260506175524 66 293 2.6 7.0 0.00 0.00 0.00 20 1018.5
20260506174526 65 287 2.6 7.8 0.00 0.00 0.00 21 1018.5
20260506174021 65 289 1.7 7.8 0.00 0.00 0.00 21 1018.6
20260506173516 65 18 2.6 7.8 0.00 0.00 0.00 21 1018.5
20260506173010 65 192 3.5 7.8 0.00 0.00 0.00 21 1018.6
20260506172505 65 229 3.5 10.4 0.00 0.00 0.00 21 1018.5
20260506171955 66 273 2.6 13.0 0.00 0.00 0.00 20 1018.5
20260506171453 65 216 2.6 13.0 0.00 0.00 0.00 21 1018.4
20260506170945 65 324 2.6 7.0 0.00 0.00 0.00 21 1018.4
20260506170440 65 231 1.7 7.0 0.00 0.00 0.00 22 1018.3
20260506165935 65 284 1.7 7.0 0.00 0.00 0.00 21 1018.3
20260506165426 64 319 1.7 7.0 0.00 0.00 0.00 23 1018.3
20260506164920 64 140 2.6 7.0 0.00 0.00 0.00 23 1018.3
20260506164414 65 319 1.7 6.1 0.00 0.00 0.00 22 1018.3
20260506163911 65 291 0.9 6.1 0.00 0.00 0.00 22 1018.3
20260506163403 65 284 1.7 5.2 0.00 0.00 0.00 22 1018.2
20260506162856 64 230 1.7 6.1 0.00 0.00 0.00 23 1018.2
20260506162350 64 328 1.7 6.1 0.00 0.00 0.00 23 1018.2
20260506161847 63 263 1.7 7.0 0.00 0.00 0.00 24 1018.2
20260506161338 63 273 2.6 7.0 0.00 0.00 0.00 23 1018.2
20260506160832 62 241 2.6 7.0 0.00 0.00 0.00 25 1018.2
20260506160325 62 207 2.6 7.0 0.00 0.00 0.00 25 1018.2
20260506155827 62 243 2.6 7.0 0.00 0.00 0.00 26 1018.1
20260506155314 61 292 2.6 7.0 0.00 0.00 0.00 27 1018.1
20260506154808 61 315 2.6 7.8 0.00 0.00 0.00 27 1018.1
20260506154302 61 274 2.6 8.7 0.00 0.00 0.00 27 1018.1
20260506153250 60 289 4.3 11.3 0.00 0.00 0.00 28 1018.1
20260506152744 60 214 4.3 11.3 0.00 0.00 0.00 28 1018.0
20260506152238 60 266 3.5 10.4 0.00 0.00 0.00 28 1018.0
20260506151732 59 263 2.6 10.4 0.00 0.00 0.00 28 1018.0
20260506151228 59 252 2.6 7.0 0.00 0.00 0.00 28 1018.0
20260506150219 60 301 1.7 6.1 0.00 0.00 0.00 29 1017.8
20260506145711 59 259 3.5 9.6 0.00 0.00 0.00 29 1017.8
20260506145202 59 136 4.3 9.6 0.00 0.00 0.00 30 1017.7
20260506143704 59 136 2.6 11.3 0.00 0.00 0.00 30 1017.5
20260506143203 58 226 3.5 11.3 0.00 0.00 0.00 31 1017.6
20260506142657 58 184 4.3 10.4 0.00 0.00 0.00 31 1017.5
20260506142158 58 248 3.5 10.4 0.00 0.00 0.00 31 1017.5
20260506141657 57 174 2.6 7.0 0.00 0.00 0.00 31 1017.5
20260506141158 57 224 4.3 12.2 0.00 0.00 0.00 32 1017.5
20260506140657 56 188 5.2 12.2 0.00 0.00 0.00 33 1017.3
20260506140203 56 142 4.3 9.6 0.00 0.00 0.00 33 1017.3
20260506135158 55 110 1.7 7.8 0.00 0.00 0.00 35 1017.0
20260506134157 53 189 1.7 4.3 0.00 0.00 0.00 36 1017.2
20260506133700 53 156 1.7 6.1 0.00 0.00 0.00 37 1017.0
20260506133152 52 192 3.5 6.1 0.00 0.00 0.00 38 1016.9
20260506132647 51 188 2.6 6.1 0.00 0.00 0.00 39 1016.8
20260506131637 51 162 1.7 5.2 0.00 0.00 0.00 39 1016.8
20260506130635 49 173 0.0 0.0 0.00 0.00 0.00 38 1016.7
20260506130135 49 167 0.0 3.5 0.00 0.00 0.00 38 1016.6
20260506125132 50 199 2.6 6.1 0.00 0.00 0.00 39 1016.4
20260506124131 50 105 2.6 7.8 0.00 0.00 0.00 38 1016.2
20260506123635 50 160 2.6 6.1 0.00 0.00 0.00 38 1016.1
20260506122633 51 182 1.7 5.2 0.00 0.00 0.00 36 1016.1
20260506122127 51 156 1.7 4.3 0.00 0.00 0.00 36 1016.1
20260506121628 51 204 2.6 5.2 0.00 0.00 0.00 35 1016.0
20260506121130 51 169 2.6 5.2 0.00 0.00 0.00 35 1016.1
20260506120630 52 148 2.6 7.8 0.00 0.00 0.00 35 1016.1
20260506115626 52 172 2.6 7.0 0.00 0.00 0.00 34 1016.1
20260506115131 52 159 3.5 7.8 0.00 0.00 0.00 34 1016.1
20260506114628 52 150 3.5 7.8 0.00 0.00 0.00 34 1016.1
20260506114130 52 200 2.6 7.0 0.00 0.00 0.00 34 1016.1
20260506113630 52 141 2.6 7.0 0.00 0.00 0.00 34 1016.1
20260506113131 52 157 1.7 7.0 0.00 0.00 0.00 34 1016.0
20260506112127 52 181 2.6 7.0 0.00 0.00 0.00 34 1015.9
20260506111628 52 111 1.7 7.0 0.00 0.00 0.00 33 1016.0
20260506111127 52 131 1.7 10.4 0.00 0.00 0.00 33 1015.9
20260506110627 52 165 2.6 10.4 0.00 0.00 0.00 33 1015.8
20260506110131 52 153 2.6 8.7 0.00 0.00 0.00 33 1015.8
20260506105627 52 115 1.7 6.1 0.00 0.00 0.00 33 1015.8
20260506105126 52 114 1.7 6.1 0.00 0.00 0.00 33 1015.8
20260506104634 52 158 0.9 2.6 0.00 0.00 0.00 33 1015.7
20260506104127 52 95 0.9 3.5 0.00 0.00 0.00 33 1015.7
20260506103626 52 49 0.9 3.5 0.00 0.00 0.00 33 1015.7
20260506103127 52 72 0.9 2.6 0.00 0.00 0.00 33 1015.7
20260506102123 52 126 0.9 6.1 0.00 0.00 0.00 33 1015.6
20260506101626 52 271 0.9 3.5 0.00 0.00 0.00 33 1015.6
20260506100619 52 238 0.9 4.3 0.00 0.00 0.00 33 1015.6
20260506095615 52 232 0.9 4.3 0.00 0.00 0.00 32 1015.6
20260506095113 52 61 0.9 7.0 0.00 0.00 0.00 32 1015.6
20260506094614 52 216 0.9 7.0 0.00 0.00 0.00 32 1015.6
20260506093612 52 210 1.7 7.0 0.00 0.00 0.00 32 1015.4
20260506093113 52 221 0.9 7.0 0.00 0.00 0.00 32 1015.3
20260506092615 52 270 0.9 5.2 0.00 0.00 0.00 32 1015.4
20260506092110 52 144 0.9 3.5 0.00 0.00 0.00 31 1015.3
20260506091612 53 266 1.7 5.2 0.00 0.00 0.00 31 1015.3
20260506091112 53 252 0.9 5.2 0.00 0.00 0.00 31 1015.4
20260506090608 52 230 0.9 7.0 0.00 0.00 0.00 31 1015.3
20260506090107 52 211 1.7 7.0 0.00 0.00 0.00 31 1015.3
20260506085606 52 277 0.9 6.1 0.00 0.00 0.00 31 1015.3
20260506085107 52 193 0.9 3.5 0.00 0.00 0.00 31 1015.3
20260506084109 52 98 0.9 3.5 0.00 0.00 0.00 31 1015.3
20260506083601 52 190 0.9 3.5 0.00 0.00 0.00 30 1015.2
20260506083055 53 198 0.9 4.3 0.00 0.00 0.00 31 1015.3
20260506082551 53 262 0.9 4.3 0.00 0.00 0.00 30 1015.3
20260506082050 53 252 0.9 4.3 0.00 0.00 0.00 31 1015.3
20260506081554 53 143 0.9 5.2 0.00 0.00 0.00 30 1015.3
20260506081047 53 259 0.9 5.2 0.00 0.00 0.00 30 1015.3
20260506080546 52 274 0.9 2.6 0.00 0.00 0.00 30 1015.4
20260506073047 53 221 0.9 6.1 0.00 0.00 0.00 29 1015.3
20260506072048 53 253 0.9 5.2 0.00 0.00 0.00 29 1015.3
20260506071548 53 288 0.9 5.2 0.00 0.00 0.00 29 1015.1
20260506070542 53 306 1.7 7.8 0.00 0.00 0.00 29 1015.1
20260506062458 54 90 0.9 8.7 0.00 0.00 0.00 28 1014.9
20260506061947 54 252 0.9 8.7 0.00 0.00 0.00 28 1014.9
20260506061442 54 161 1.7 6.1 0.00 0.00 0.00 28 1014.9
20260506060936 54 268 1.7 7.0 0.00 0.00 0.00 28 1014.9
20260506060429 54 250 0.9 7.0 0.00 0.00 0.00 28 1014.8
20260506051332 54 231 0.9 4.3 0.00 0.00 0.00 28 1014.5
20260506050823 54 176 1.7 5.2 0.00 0.00 0.00 28 1014.5
20260506050319 54 244 1.7 7.0 0.00 0.00 0.00 28 1014.5
20260506044759 54 208 1.7 6.1 0.00 0.00 0.00 29 1014.4
20260506044255 54 154 1.7 6.1 0.00 0.00 0.00 28 1014.4
20260506043242 54 249 1.7 6.1 0.00 0.00 0.00 28 1014.3
20260506041723 55 291 2.6 7.8 0.00 0.00 0.00 27 1014.2
20260506041218 55 248 3.5 7.0 0.00 0.00 0.00 27 1014.1
20260506040712 55 316 3.5 8.7 0.00 0.00 0.00 27 1014.2
20260506040206 55 238 3.5 9.6 0.00 0.00 0.00 27 1014.0
20260506035700 55 226 3.5 9.6 0.00 0.00 0.00 27 1013.8
20260506035154 55 148 2.6 8.7 0.00 0.00 0.00 26 1013.8
20260506034650 55 221 2.6 8.7 0.00 0.00 0.00 26 1013.7
20260506034141 55 240 2.6 8.7 0.00 0.00 0.00 26 1013.7
20260506033636 55 300 1.7 8.7 0.00 0.00 0.00 26 1013.6
20260506033130 55 285 1.7 11.3 0.00 0.00 0.00 26 1013.5
20260506032629 55 181 2.6 11.3 0.00 0.00 0.00 26 1013.5
20260506032129 56 207 2.6 9.6 0.00 0.00 0.00 26 1013.4
20260506031628 56 177 1.7 6.1 0.00 0.00 0.00 26 1013.3
20260506031129 56 248 2.6 7.8 0.00 0.00 0.00 26 1013.3
20260506030628 56 226 3.5 11.3 0.00 0.00 0.00 26 1013.3
20260506030126 56 257 3.5 11.3 0.00 0.00 0.00 26 1013.2
20260506025131 56 278 2.6 7.8 0.00 0.00 0.00 26 1013.0
20260506024628 56 242 2.6 9.6 0.00 0.00 0.00 26 1013.2
20260506024129 56 210 2.6 9.6 0.00 0.00 0.00 26 1013.0
20260506023630 56 219 2.6 7.8 0.00 0.00 0.00 26 1012.9
20260506023127 57 237 3.5 9.6 0.00 0.00 0.00 26 1012.8
20260506022624 57 326 3.5 9.6 0.00 0.00 0.00 25 1012.8
20260506022126 57 274 2.6 6.1 0.00 0.00 0.00 26 1012.8
20260506021125 57 258 3.5 9.6 0.00 0.00 0.00 25 1012.6
20260506020624 57 191 3.5 9.6 0.00 0.00 0.00 25 1012.4
20260506020126 58 272 3.5 10.4 0.00 0.00 0.00 25 1012.1
20260506015625 58 220 3.5 10.4 0.00 0.00 0.00 24 1012.1
20260506015125 58 242 3.5 9.6 0.00 0.00 0.00 24 1012.0
20260506014624 59 269 5.2 13.9 0.00 0.00 0.00 23 1011.8
20260506013627 60 136 4.3 9.6 0.00 0.00 0.00 22 1011.8
20260506012124 61 167 3.5 10.4 0.00 0.00 0.00 21 1011.7
20260506011628 62 232 3.5 7.8 0.00 0.00 0.00 21 1011.7
20260506011125 62 281 3.5 8.7 0.00 0.00 0.00 21 1011.7
20260506010123 61 218 5.2 12.2 0.00 0.00 0.00 22 1011.6
20260506005626 62 287 4.3 12.2 0.00 0.00 0.00 21 1011.6
20260506005125 63 236 2.6 7.0 0.00 0.00 0.00 20 1011.5
20260506004625 63 236 3.5 8.7 0.00 0.00 0.00 20 1011.3
20260506003106 62 290 4.3 11.3 0.00 0.00 0.00 20 1011.2
20260506002107 62 235 5.2 11.3 0.00 0.00 0.00 21 1011.2
20260506001604 61 252 3.5 11.3 0.00 0.00 0.00 22 1011.1
20260506001104 61 274 4.3 11.3 0.00 0.00 0.00 22 1011.0
20260506000606 61 301 5.2 12.2 0.00 0.00 0.00 22 1011.0
20260506000100 62 245 4.3 12.2 0.00 0.00 0.00 21 1011.1
20260505235559 64 286 3.5 11.3 0.00 0.00 0.00 19 1011.1